Location: Zagreb
(45.8000°N, 16.0000°E)
Time: 22:54:22
(UTC+01:00)

Tiangong - Visible Passes

Search period start: 30 November 2022 00:00
Search period end: 10 December 2022 00:00
Orbit: 385 x 393 km, 41.5° (Epoch: 30 November)

Date Brightness Start Highest point End Pass type
(mag) Time Alt. Az. Time Alt. Az. Time Alt. Az.
30 Nov 0.0 18:05:33 10° SSW 18:07:32 18° SSE 18:07:32 18° SSE visible
01 Dec 0.4 17:08:22 10° S 17:09:53 13° SSE 17:11:24 10° SE visible
01 Dec 0.5 18:43:23 10° SW 18:44:29 18° SW 18:44:29 18° SW visible
02 Dec -0.5 17:45:29 10° SW 17:48:10 25° SSE 17:49:03 22° SE visible
03 Dec 0.0 16:47:45 10° SSW 16:50:06 19° SSE 16:52:27 10° ESE visible
03 Dec -0.6 18:23:37 10° WSW 18:25:52 31° SSW 18:25:52 31° SSW visible
04 Dec -0.8 17:25:31 10° SW 17:28:24 32° S 17:30:20 17° ESE visible
04 Dec 1.1 19:02:03 10° WSW 19:02:38 14° WSW 19:02:38 14° WSW visible
05 Dec -1.1 18:03:47 10° WSW 18:06:46 37° S 18:07:05 36° SSE visible
06 Dec -0.9 17:05:31 10° WSW 17:08:28 36° S 17:11:27 10° ESE visible
06 Dec 0.3 18:42:15 10° WSW 18:43:50 21° SW 18:43:50 21° SW visible
07 Dec -0.7 17:43:50 10° WSW 17:46:45 33° S 17:48:18 21° SE visible
08 Dec -0.8 16:45:25 10° WSW 16:48:23 37° S 16:51:22 10° ESE visible
08 Dec 0.0 18:22:24 10° WSW 18:24:53 21° SSW 18:25:08 21° SSW visible
09 Dec -0.2 17:23:47 10° WSW 17:26:32 27° SSW 17:29:18 10° SE visible
